EW7507 Weather Reports


Display with metric or nautical units.
time (UTC)temp
F
wind
direction
speed
MPH
gust
MPH
rain 1hr
in
rain 24hr
in
rain mn
in
humidity
%
barometer
mb
20260503031923 60 169 1.0 3.0 0.00 0.00 0.00 44 973.5
20260503031424 61 169 0.0 3.0 0.00 0.00 0.00 44 973.4
20260503030929 61 213 0.0 2.0 0.00 0.00 0.00 40 973.3
20260503030922 60 183 1.0 2.0 0.00 0.00 0.00 44 973.4
20260503025923 61 213 1.0 2.0 0.00 0.00 0.00 39 973.2
20260503025424 62 213 0.0 2.0 0.00 0.00 0.00 39 973.2
20260503024922 62 213 1.0 4.0 0.00 0.00 0.00 40 973.2
20260503024427 62 213 1.0 4.0 0.00 0.00 0.00 39 973.2
20260503023923 63 213 3.0 4.0 0.00 0.00 0.00 39 973.2
20260503023424 63 214 3.0 4.0 0.00 0.00 0.00 38 973.2
20260503022921 64 217 1.0 2.0 0.00 0.00 0.00 38 973.2
20260503022423 64 217 1.0 2.0 0.00 0.00 0.00 36 973.1
20260503021933 65 217 0.0 2.0 0.00 0.00 0.00 34 973.3
20260503021923 65 217 1.0 2.0 0.00 0.00 0.00 36 973.1
20260503020930 65 217 1.0 2.0 0.00 0.00 0.00 35 973.2
20260503020923 65 217 0.0 2.0 0.00 0.00 0.00 34 973.2
20260503015922 66 217 0.0 2.0 0.00 0.00 0.00 34 973.3
20260503015423 66 217 1.0 2.0 0.00 0.00 0.00 33 973.3
20260503014920 66 217 1.0 2.0 0.00 0.00 0.00 32 973.3
20260503014431 66 219 1.0 2.0 0.00 0.00 0.00 36 973.4
20260503014423 66 219 1.0 2.0 0.00 0.00 0.00 37 973.4
20260503013422 66 219 1.0 3.0 0.00 0.00 0.00 35 973.4
20260503012920 66 217 2.0 3.0 0.00 0.00 0.00 33 973.4
20260503012423 66 217 1.0 3.0 0.00 0.00 0.00 34 973.5
20260503011928 66 219 0.0 3.0 0.00 0.00 0.00 33 973.6
20260503011921 66 219 1.0 3.0 0.00 0.00 0.00 33 973.5
20260503010919 66 219 1.0 4.0 0.00 0.00 0.00 34 973.6
20260503010422 66 219 2.0 4.0 0.00 0.00 0.00 34 973.6
20260503005928 66 219 0.0 4.0 0.00 0.00 0.00 32 973.7
20260503005921 66 219 1.0 3.0 0.00 0.00 0.00 33 973.6
20260503004920 66 219 2.0 4.0 0.00 0.00 0.00 33 973.7
20260503004422 66 221 1.0 4.0 0.00 0.00 0.00 33 973.8
20260503003921 66 224 2.0 4.0 0.00 0.00 0.00 34 973.9
20260503003421 66 240 1.0 5.0 0.00 0.00 0.00 34 973.8
20260503002919 66 243 2.0 9.0 0.00 0.00 0.00 34 973.8
20260503002421 66 220 3.0 9.0 0.00 0.00 0.00 34 974.0
20260503001925 66 159 4.0 13.0 0.00 0.00 0.00 37 974.0
20260503001918 65 192 5.0 13.0 0.00 0.00 0.00 35 974.0
20260503001545 66 233 8.0 15.0 0.00 0.00 0.00 36 974.1
20260503000424 65 296 7.0 15.0 0.00 0.00 0.00 40 974.1
20260502235926 62 278 5.0 13.0 0.00 0.00 0.00 48 974.4
20260502235919 64 186 3.0 7.0 0.00 0.00 0.00 47 974.2
20260502235546 62 159 3.0 13.0 0.00 0.00 0.00 47 974.4
20260502234420 62 147 3.0 6.0 0.00 0.00 0.00 48 974.5
20260502233917 62 192 4.0 10.0 0.00 0.00 0.00 49 974.6
20260502233421 62 240 5.0 12.0 0.00 0.00 0.00 50 975.1
20260502232918 62 271 4.0 20.0 0.00 0.00 0.00 50 975.1
20260502232421 62 258 9.0 21.0 0.00 0.00 0.00 50 975.3
20260502231918 62 276 15.0 21.0 0.00 0.00 0.00 48 975.6
20260502231429 63 310 14.0 22.0 0.00 0.00 0.00 49 975.5
20260502231421 62 262 7.0 21.0 0.00 0.00 0.00 49 975.5
20260502230422 65 321 17.0 29.0 0.00 0.00 0.00 45 975.3
20260502225917 66 302 12.0 29.0 0.00 0.00 0.00 41 975.3
20260502225420 67 340 7.0 28.0 0.00 0.00 0.00 38 975.3
20260502224917 68 289 4.0 7.0 0.00 0.00 0.00 35 975.0
20260502224421 68 252 2.0 4.0 0.00 0.00 0.00 35 974.9
20260502223916 68 251 0.0 4.0 0.00 0.00 0.00 34 974.9
20260502223420 68 251 1.0 5.0 0.00 0.00 0.00 34 974.9
20260502222915 69 262 2.0 6.0 0.00 0.00 0.00 33 975.0
20260502222420 70 314 4.0 6.0 0.00 0.00 0.00 33 975.0
20260502221916 69 264 2.0 6.0 0.00 0.00 0.00 35 975.1
20260502221420 69 165 2.0 5.0 0.00 0.00 0.00 34 975.1
20260502220916 68 159 2.0 5.0 0.00 0.00 0.00 34 975.2
20260502220420 68 159 1.0 6.0 0.00 0.00 0.00 34 975.2
20260502215917 69 157 3.0 6.0 0.00 0.00 0.00 34 975.3
20260502215425 71 142 3.0 6.0 0.00 0.00 0.00 33 975.5
20260502215418 69 147 3.0 5.0 0.00 0.00 0.00 35 975.3
20260502214430 70 18 2.0 5.0 0.00 0.00 0.00 35 975.6
20260502214421 70 96 3.0 6.0 0.00 0.00 0.00 33 975.5
20260502213425 69 94 4.0 6.0 0.00 0.00 0.00 34 975.7
20260502213418 69 41 2.0 5.0 0.00 0.00 0.00 38 975.7
20260502212418 69 94 2.0 7.0 0.00 0.00 0.00 34 975.8
20260502211916 69 85 1.0 7.0 0.00 0.00 0.00 34 975.9
20260502211420 70 58 0.0 5.0 0.00 0.00 0.00 33 976.0
20260502210922 69 1 3.0 10.0 0.00 0.00 0.00 39 976.1
20260502210914 69 61 1.0 9.0 0.00 0.00 0.00 33 976.1
20260502205914 68 96 2.0 11.0 0.00 0.00 0.00 36 976.1
20260502205414 68 182 2.0 11.0 0.00 0.00 0.00 34 976.3
20260502204914 69 85 6.0 10.0 0.00 0.00 0.00 37 976.3
20260502204415 68 0 1.0 10.0 0.00 0.00 0.00 37 976.4
20260502203913 69 138 4.0 10.0 0.00 0.00 0.00 35 976.5
20260502203414 69 165 0.0 5.0 0.00 0.00 0.00 35 976.5
20260502202914 70 217 0.0 5.0 0.00 0.00 0.00 34 976.5
20260502202414 69 207 0.0 4.0 0.00 0.00 0.00 35 976.6
20260502201912 68 314 1.0 9.0 0.00 0.00 0.00 36 976.7
20260502201424 67 147 1.0 2.0 0.00 0.00 0.00 35 977.0
20260502201416 67 296 5.0 9.0 0.00 0.00 0.00 36 976.9
20260502200415 69 130 0.0 2.0 0.00 0.00 0.00 35 977.0
20260502195912 69 0 0.0 2.0 0.00 0.00 0.00 37 977.1
20260502195413 68 0 0.0 3.0 0.00 0.00 0.00 36 977.2
20260502194912 67 306 1.0 5.0 0.00 0.00 0.00 36 977.3
20260502194413 68 307 1.0 5.0 0.00 0.00 0.00 35 977.4
20260502193912 68 316 1.0 9.0 0.00 0.00 0.00 34 977.5
20260502192911 70 0 5.0 10.0 0.00 0.00 0.00 34 977.6
20260502192414 70 6 5.0 7.0 0.00 0.00 0.00 34 977.5
20260502191913 69 72 3.0 10.0 0.00 0.00 0.00 35 977.7
20260502191420 68 7 2.0 5.0 0.00 0.00 0.00 36 977.8
20260502191412 69 0 1.0 10.0 0.00 0.00 0.00 37 977.7
20260502190412 68 11 1.0 6.0 0.00 0.00 0.00 37 977.9
20260502185911 68 0 4.0 6.0 0.00 0.00 0.00 36 978.0
20260502185413 67 41 2.0 7.0 0.00 0.00 0.00 37 978.0
20260502184910 67 334 2.0 7.0 0.00 0.00 0.00 36 978.1
20260502184413 67 0 3.0 7.0 0.00 0.00 0.00 36 978.1
20260502183910 67 13 6.0 9.0 0.00 0.00 0.00 37 978.1
20260502183421 68 7 4.0 7.0 0.00 0.00 0.00 36 978.3
20260502183413 67 10 3.0 9.0 0.00 0.00 0.00 36 978.2
20260502183034 68 341 5.0 7.0 0.00 0.00 0.00 37 978.4
20260502181910 67 298 1.0 4.0 0.00 0.00 0.00 39 978.3
20260502181413 67 197 3.0 5.0 0.00 0.00 0.00 36 978.4
20260502180910 66 327 3.0 5.0 0.00 0.00 0.00 37 978.5
20260502180411 66 347 4.0 5.0 0.00 0.00 0.00 38 978.6
20260502170409 61 118 0.0 2.0 0.00 0.00 0.00 47 979.0
20260502163908 62 111 1.0 3.0 0.00 0.00 0.00 45 979.1
20260502163410 62 110 0.0 3.0 0.00 0.00 0.00 46 979.0
20260502162914 61 110 2.0 3.0 0.00 0.00 0.00 51 979.0
20260502162907 61 110 1.0 3.0 0.00 0.00 0.00 48 979.0
20260502161906 60 111 1.0 6.0 0.00 0.00 0.00 49 979.0
20260502161416 60 125 1.0 4.0 0.00 0.00 0.00 52 979.1
20260502161409 60 110 4.0 6.0 0.00 0.00 0.00 48 979.0
20260502160408 60 127 2.0 4.0 0.00 0.00 0.00 53 979.2
20260502151906 54 286 1.0 3.0 0.00 0.00 0.00 62 979.4
20260502151407 53 286 2.0 4.0 0.00 0.00 0.00 63 979.4
20260502150905 53 286 3.0 4.0 0.00 0.00 0.00 64 979.4
20260502150413 53 286 0.0 4.0 0.00 0.00 0.00 65 979.4
20260502150406 53 285 3.0 4.0 0.00 0.00 0.00 65 979.3
20260502130403 49 310 1.0 3.0 0.00 0.00 0.00 71 979.1
20260502123403 49 324 2.0 3.0 0.00 0.00 0.00 69 978.8
20260502122901 50 324 1.0 3.0 0.00 0.00 0.00 67 979.0
20260502122402 50 324 1.0 4.0 0.00 0.00 0.00 66 979.1
20260502121900 50 324 3.0 4.0 0.00 0.00 0.00 67 979.1
20260502121411 50 331 2.0 4.0 0.00 0.00 0.00 65 979.0
20260502121402 50 329 3.0 4.0 0.00 0.00 0.00 66 979.1
20260502120402 50 331 0.0 2.0 0.00 0.00 0.00 65 979.0
20260502115900 50 331 1.0 2.0 0.00 0.00 0.00 65 979.0
20260502115403 50 331 1.0 2.0 0.00 0.00 0.00 65 979.1
20260502114900 50 331 0.0 0.0 0.00 0.00 0.00 65 979.2
20260502114411 50 331 0.0 0.0 0.00 0.00 0.00 65 979.1
20260502114403 50 331 0.0 0.0 0.00 0.00 0.00 65 979.1
20260502114024 50 331 0.0 0.0 0.00 0.00 0.00 65 979.1
20260502112907 50 331 0.0 0.0 0.00 0.00 0.00 64 979.1
20260502112900 50 331 0.0 0.0 0.00 0.00 0.00 64 979.1
20260502112527 51 331 0.0 1.0 0.00 0.00 0.00 63 979.1
20260502111400 51 331 0.0 1.0 0.00 0.00 0.00 63 979.0
20260502110900 51 331 0.0 0.0 0.00 0.00 0.00 63 979.0
20260502110408 51 331 0.0 0.0 0.00 0.00 0.00 63 979.0
20260502110400 51 331 0.0 0.0 0.00 0.00 0.00 63 979.0
20260502105408 51 331 0.0 0.0 0.00 0.00 0.00 63 979.0
20260502105400 51 331 0.0 0.0 0.00 0.00 0.00 63 979.1
20260502104400 51 331 0.0 0.0 0.00 0.00 0.00 63 979.0
20260502103858 51 331 0.0 1.0 0.00 0.00 0.00 63 979.0
20260502103400 51 331 0.0 1.0 0.00 0.00 0.00 62 979.0
20260502102858 51 331 1.0 1.0 0.00 0.00 0.00 62 978.8
20260502102406 51 331 0.0 3.0 0.00 0.00 0.00 61 978.8
20260502102359 51 331 0.0 0.0 0.00 0.00 0.00 61 979.0
20260502101359 51 331 1.0 3.0 0.00 0.00 0.00 61 978.7
20260502100858 51 0 0.0 0.0 0.00 0.00 0.00 61 978.7
20260502100408 51 0 0.0 0.0 0.00 0.00 0.00 61 978.7
20260502100359 51 0 0.0 0.0 0.00 0.00 0.00 61 978.7
20260502091357 53 0 2.0 3.0 0.00 0.00 0.00 58 978.3
20260502090904 53 0 0.0 4.0 0.00 0.00 0.00 57 978.3
20260502090856 53 0 1.0 3.0 0.00 0.00 0.00 57 978.3
20260502071355 57 319 8.0 15.0 0.00 0.00 0.00 50 977.3
20260502070854 57 334 7.0 14.0 0.00 0.00 0.00 50 977.3
20260502070354 57 350 9.0 16.0 0.00 0.00 0.00 49 977.1
20260502065854 57 348 8.0 16.0 0.00 0.00 0.00 49 976.9
20260502065355 58 8 9.0 16.0 0.00 0.00 0.00 48 976.5
20260502064853 58 0 9.0 16.0 0.00 0.00 0.00 47 976.3
20260502064354 58 28 6.0 22.0 0.00 0.00 0.00 46 976.0
20260502063853 59 52 11.0 22.0 0.00 0.00 0.00 45 975.8
20260502063354 59 93 7.0 17.0 0.00 0.00 0.00 45 975.6
20260502062852 59 52 8.0 18.0 0.00 0.00 0.00 45 975.7
20260502062407 59 80 10.0 20.0 0.00 0.00 0.00 44 975.3
20260502062354 59 42 9.0 20.0 0.00 0.00 0.00 45 975.5
20260502061858 59 55 9.0 20.0 0.00 0.00 0.00 45 975.4
20260502061851 59 62 5.0 20.0 0.00 0.00 0.00 45 975.5
20260502060352 59 38 10.0 17.0 0.00 0.00 0.00 44 975.3
20260502055852 60 14 9.0 17.0 0.00 0.00 0.00 44 975.1
20260502055352 60 3 9.0 15.0 0.00 0.00 0.00 44 975.1
20260502054851 60 51 9.0 18.0 0.00 0.00 0.00 44 975.0
20260502054352 60 355 9.0 18.0 0.00 0.00 0.00 43 975.0
20260502053852 60 1 8.0 17.0 0.00 0.00 0.00 43 974.8
20260502053352 61 14 9.0 17.0 0.00 0.00 0.00 43 974.8
20260502052851 61 1 7.0 14.0 0.00 0.00 0.00 42 974.8
20260502052352 61 0 7.0 14.0 0.00 0.00 0.00 41 974.6
20260502051851 61 347 7.0 12.0 0.00 0.00 0.00 39 974.5
20260502051352 62 4 6.0 12.0 0.00 0.00 0.00 37 974.4
20260502050850 62 0 6.0 11.0 0.00 0.00 0.00 36 974.3
20260502050352 62 355 4.0 13.0 0.00 0.00 0.00 34 974.2
20260502045850 62 345 7.0 13.0 0.00 0.00 0.00 33 974.2
20260502045350 61 21 6.0 9.0 0.00 0.00 0.00 33 974.1
20260502044849 62 357 3.0 7.0 0.00 0.00 0.00 34 974.0
20260502044350 62 326 0.0 2.0 0.00 0.00 0.00 36 973.8
20260502043849 62 326 1.0 4.0 0.00 0.00 0.00 37 973.7
20260502043352 63 326 1.0 4.0 0.00 0.00 0.00 31 973.8
20260502042849 64 326 3.0 4.0 0.00 0.00 0.00 30 973.7
20260502042350 64 327 1.0 3.0 0.00 0.00 0.00 30 973.8
20260502041849 64 327 1.0 2.0 0.00 0.00 0.00 29 973.6
20260502041350 65 327 0.0 2.0 0.00 0.00 0.00 29 973.7
20260502040849 65 327 1.0 3.0 0.00 0.00 0.00 29 973.6
20260502040349 65 327 2.0 4.0 0.00 0.00 0.00 29 973.6
20260502035848 66 327 2.0 4.0 0.00 0.00 0.00 28 973.6
20260502035350 66 329 2.0 5.0 0.00 0.00 0.00 28 973.5
20260502034848 67 329 2.0 7.0 0.00 0.00 0.00 27 973.6
20260502034349 67 0 2.0 7.0 0.00 0.00 0.00 26 973.5
20260502033847 66 0 6.0 7.0 0.00 0.00 0.00 26 973.5
20260502033349 66 350 5.0 10.0 0.00 0.00 0.00 27 973.5
20260502032848 66 317 6.0 11.0 0.00 0.00 0.00 28 973.4